QPF
0.00 0.03 0.06 0.02 0.00 0.00 0.00 0.00 0.00 0.00 0.00 0.00 0.00 0.00 0.00 0.00 0.00 0.00 0.00 0.00 0.00 0.00
0.01 0.02 0.01 0.00 0.00 0.00 0.00 0.00 0.00 0.00 0.00 0.00 0.00 0.00 0.00 0.00 0.00 0.00 0.00 0.00 0.00 0.00
0.00 0.01 0.00 0.00 0.00 0.00 0.00 0.00 0.00 0.00 0.00 0.00 0.00 0.00 0.00 0.00 0.00 0.00 0.00 0.00 0.00 0.00
0.00 0.00 0.00 0.00 0.00 0.00 0.00 0.00 0.00 0.00 0.00 0.00 0.00 0.00 0.00 0.00 0.00 0.00 0.00 0.00 0.00 0.00
0.00 0.00 0.00 0.00 0.00 0.00 0.00 0.00 0.00 0.00 0.00 0.00 0.00 0.00 0.00 0.00 0.00 0.00 0.00 0.00 0.00 0.00
0.00 0.00 0.00 0.00 0.00 0.00 0.00 0.00 0.00 0.00 0.00 0.00 0.00 0.00 0.00 0.00 0.00 0.00 0.00 0.00 0.00 0.00
0.00 0.00 0.00 0.00 0.00 0.00 0.00 0.00 0.00 0.00 0.00 0.00 0.00 0.00 0.00 0.00 0.00 0.00 0.00 0.00 0.00 0.00
0.00 0.00 0.00 0.00 0.00 0.00 0.00 0.00 0.00 0.00 0.00 0.00 0.00 0.00 0.00 0.00 0.00 0.00 0.00 0.00 0.00 0.00
0.00 0.00 0.00 0.00 0.00 0.00 0.00 0.00 0.00 0.00 0.00 0.00 0.00 0.00 0.00 0.00 0.00 0.00 0.00 0.00 0.00 0.00
0.00 0.00 0.00 0.00 0.00 0.00 0.00 0.00 0.00 0.00 0.00 0.00 0.00 0.00 0.00 0.00 0.00 0.00 0.00 0.00 0.00 0.00
0.00 0.00 0.00 0.00 0.00 0.00 0.00 0.00 0.00 0.00 0.00 0.00 0.00 0.00 0.00 0.00 0.00 0.00 0.00 0.00 0.00 0.00
0.00 0.00 0.00 0.00 0.00 0.00 0.00 0.00 0.00 0.00 0.00 0.00 0.00 0.00 0.00 0.00 0.00 0.00 0.00 0.00 0.00 0.00
0.00 0.00 0.00 0.00 0.00 0.00 0.00 0.00 0.00 0.00 0.00 0.00 0.00 0.00 0.00 0.00 0.00 0.00 0.00 0.00 0.00 0.00
0.00 0.00 0.00 0.00 0.00 0.00 0.00 0.00 0.00 0.00 0.00 0.00 0.00 0.00 0.00 0.00 0.00 0.00 0.00 0.00 0.00 0.00
MSLP
1010.71 1011.37 1011.81 1012.22 1012.49 1012.78 1012.99 1013.13 1013.37 1013.40 1013.49 1013.55 1013.41 1013.54 1013.56 1013.66 1013.74 1013.87 1013.96 1014.06 1014.10 1014.25
1010.63 1011.29 1011.80 1011.99 1012.29 1012.56 1012.74 1013.00 1013.33 1013.47 1013.52 1013.71 1013.56 1013.70 1013.92 1014.16 1014.19 1014.26 1014.51 1014.59 1014.54 1014.70
1010.71 1011.12 1011.52 1011.81 1012.22 1012.63 1012.86 1013.10 1013.37 1013.61 1013.83 1013.96 1013.91 1014.01 1014.09 1014.40 1014.48 1014.60 1014.86 1015.04 1014.98 1015.28
1010.71 1011.14 1011.51 1011.93 1012.30 1012.68 1012.98 1013.23 1013.48 1013.89 1014.11 1014.19 1014.28 1014.39 1014.46 1014.66 1014.73 1015.01 1015.19 1015.34 1015.52 1015.80
1010.70 1011.15 1011.62 1012.04 1012.42 1012.74 1013.13 1013.45 1013.82 1014.18 1014.35 1014.51 1014.55 1014.61 1014.64 1014.88 1014.96 1015.06 1015.48 1015.90 1016.03 1016.40
1010.59 1011.08 1011.63 1012.14 1012.55 1012.79 1013.27 1013.65 1014.04 1014.33 1014.64 1014.88 1015.02 1015.06 1014.96 1014.88 1015.01 1015.40 1015.82 1016.09 1016.25 1016.59
1010.43 1010.97 1011.58 1012.16 1012.55 1012.91 1013.35 1013.86 1014.29 1014.60 1014.88 1015.14 1015.26 1015.32 1015.25 1015.31 1015.51 1015.87 1016.15 1016.35 1016.46 1016.58
1010.42 1010.98 1011.65 1012.26 1012.53 1012.89 1013.26 1013.62 1014.11 1014.55 1014.97 1015.23 1015.43 1015.56 1015.66 1015.76 1015.86 1016.09 1016.29 1016.42 1016.54 1016.61
1010.37 1010.87 1011.60 1012.17 1012.66 1013.09 1013.54 1013.91 1014.28 1014.76 1015.09 1015.39 1015.58 1015.75 1015.89 1015.90 1016.06 1016.31 1016.42 1016.73 1016.77 1016.66
1010.57 1011.26 1011.89 1012.26 1012.77 1013.39 1013.85 1014.20 1014.73 1015.21 1015.45 1015.56 1015.56 1015.70 1016.00 1016.10 1016.23 1016.56 1016.64 1016.71 1016.71 1016.67
1010.42 1011.09 1011.71 1012.45 1013.09 1013.55 1014.02 1014.62 1015.14 1015.55 1015.85 1016.11 1016.10 1015.71 1015.81 1016.08 1016.31 1016.47 1016.41 1016.54 1016.58 1016.72
1010.49 1011.29 1011.99 1012.51 1012.99 1013.57 1014.27 1014.90 1015.32 1015.55 1015.96 1016.02 1015.96 1015.81 1015.76 1015.93 1016.37 1016.61 1016.60 1016.47 1016.18 1016.28
1010.49 1011.23 1011.93 1012.38 1013.07 1013.68 1014.17 1014.73 1015.06 1015.48 1015.62 1015.75 1015.98 1016.07 1016.01 1016.08 1016.43 1016.76 1016.77 1016.51 1016.36 1016.12
1010.74 1011.30 1011.81 1012.64 1013.18 1013.76 1014.35 1014.87 1015.18 1015.19 1015.37 1015.92 1016.07 1016.03 1016.05 1016.07 1016.43 1016.81 1016.84 1016.78 1016.64 1016.35
Thickness
5803 5796 5792 5788 5784 5779 5775 5773 5771 5769 5766 5763 5762 5761 5758 5755 5751 5747 5745 5743 5741 5737
5802 5796 5791 5789 5785 5781 5778 5774 5769 5765 5764 5759 5759 5755 5750 5746 5743 5741 5736 5734 5732 5728
5800 5796 5791 5788 5784 5779 5777 5772 5767 5762 5759 5755 5752 5750 5747 5741 5738 5734 5728 5724 5722 5715
5798 5794 5790 5785 5782 5777 5773 5768 5763 5757 5752 5748 5746 5744 5740 5736 5732 5726 5720 5716 5710 5705
5795 5791 5787 5783 5778 5773 5767 5763 5757 5752 5747 5742 5740 5737 5733 5729 5725 5720 5713 5707 5701 5693
5793 5789 5783 5777 5773 5769 5762 5756 5752 5746 5740 5735 5730 5727 5725 5723 5719 5711 5703 5699 5693 5687
5792 5787 5781 5774 5769 5763 5758 5750 5744 5739 5734 5728 5724 5719 5717 5714 5708 5700 5694 5688 5683 5677
5790 5785 5777 5770 5766 5761 5755 5749 5742 5733 5726 5721 5717 5713 5707 5703 5699 5693 5687 5683 5677 5672
5789 5783 5774 5767 5760 5753 5746 5740 5734 5726 5718 5712 5709 5706 5701 5695 5689 5683 5677 5672 5666 5662
5783 5774 5767 5761 5753 5745 5738 5732 5723 5714 5707 5703 5700 5696 5690 5686 5680 5673 5667 5662 5657 5653
5778 5769 5762 5752 5744 5737 5728 5720 5712 5704 5696 5689 5686 5687 5683 5677 5671 5666 5661 5654 5647 5641
5770 5759 5751 5744 5738 5729 5719 5710 5702 5696 5687 5682 5679 5678 5675 5668 5659 5652 5648 5644 5640 5635
5762 5753 5744 5738 5730 5721 5713 5703 5697 5690 5684 5678 5670 5666 5663 5657 5650 5642 5637 5632 5626 5623
5753 5744 5735 5727 5721 5714 5705 5696 5688 5685 5680 5669 5662 5658 5654 5648 5640 5631 5625 5619 5613 5608